Regional Weather Roundup
Issued by NWS

Home | Current Version | Previous Version | Text Only | Print | Product List | Glossary On
Versions: 1 2 3 4 5 6 7 8 9 10 11 12 13 14 15 16 17 18 19 20 21 22 23 24 25 26 27 28 29 30 31 32 33 34 35 36 37 38 39 40 41 42 43 44 45 46 47 48 49 50
000
ASUS45 KBOI 012210
RWRID
WEATHER ROUNDUP FOR IDAHO
NATIONAL WEATHER SERVICE BOISE ID
400 PM MDT FRI AUG 01 2014

NOTE: "FAIR" INDICATES FEW OR NO CLOUDS BELOW 12000 FEET
WITH NO SIGNIFICANT WEATHER AND/OR OBSTRUCTIONS TO VISIBILITY

IDZ012-014-012300-
SOUTHWEST IDAHO


CITY           SKY/WX    TMP DP  RH WIND       PRES   REMARKS
BOISE          SUNNY     96  46  18 N7        30.00F HX  92
CALDWELL       SUNNY     93  52  24 CALM      30.02F HX  90
MOUNTAIN HOME  MOSUNNY   95  43  16 VRB6      30.01F HX  91
$$

IDZ016-017-012300-
SOUTHCENTRAL IDAHO


CITY           SKY/WX    TMP DP  RH WIND       PRES   REMARKS
BURLEY         SUNNY     89  41  18 VRB5      30.09F
JEROME         SUNNY     90  45  21 VRB6      30.10F
TWIN FALLS     SUNNY     92  45  19 N6        30.10F
$$

IDZ019>023-012300-
SOUTHEAST IDAHO


CITY           SKY/WX    TMP DP  RH WIND       PRES   REMARKS
IDAHO FALLS    MOSUNNY   90  39  16 E18G25    30.15F
POCATELLO      MOSUNNY   92  42  17 NW9       30.12F
REXBURG        MOSUNNY   88  38  17 SW12      30.16F
$$

IDZ006-010-011-018-031-032-012300-
CENTRAL IDAHO MOUNTAINS


CITY           SKY/WX    TMP DP  RH WIND       PRES   REMARKS
MCCALL         PTSUNNY   82  42  24 SW5       30.16F
HAILEY         PTSUNNY   81  45  28 NE12G24   30.21F
STANLEY          N/A     81  38  21 NW8       30.27F
SALMON         CLOUDY    86  48  26 N10       30.04F
CHALLIS        LGT RAIN  76  50  40 N6        30.17R
$$

IDZ002-004-006-007-026-012300-
NORTHERN IDAHO


CITY           SKY/WX    TMP DP  RH WIND       PRES   REMARKS
LEWISTON       CLOUDY    98  43  15 E6        29.93F HX  94
LOWELL           N/A     87  62  43 CALM      29.92S
COEUR D`ALENE  MOSUNNY   93  45  18 CALM      30.00F
MULLAN PASS    PTSUNNY   76  44  32 VRB3      30.27F
$$


USA.gov is the U.S. government's official web portal to all federal, state and local government web resources and services.